EW2077 Weather Reports


time (UTC)temp
C
wind
direction
speed
KPH
gust
KPH
rain 1hr
cm
rain 24hr
cm
rain mn
cm
humidity
%
barometer
mb
20260505023028 6 208 0.0 0.0 0.00 0.00 0.00 89 1030.6
20260505021529 6 208 0.0 0.0 0.00 0.00 0.00 89 1030.1
20260505020025 6 208 0.0 0.0 0.00 0.00 0.00 88 1029.7
20260505014525 6 208 0.0 0.0 0.00 0.00 0.00 88 1029.6
20260505013024 6 208 0.0 0.0 0.00 0.00 0.00 88 1029.4
20260505011525 6 208 0.0 0.0 0.00 0.00 0.00 87 1029.7
20260505010022 6 208 0.0 0.0 0.00 0.00 0.00 87 1029.8
20260505004525 7 208 0.0 0.0 0.00 0.00 0.00 86 1029.4
20260505003021 7 208 0.0 0.0 0.00 0.00 0.00 87 1029.7
20260505001520 7 208 0.0 0.0 0.00 0.00 0.00 85 1030.2
20260505000024 7 208 0.0 4.8 0.00 0.00 0.00 78 1030.4
20260504234515 8 205 0.0 0.0 0.00 0.00 0.00 72 1029.9
20260504233014 10 205 0.0 0.0 0.00 0.00 0.00 58 1029.5
20260504231512 10 206 0.0 9.7 0.00 0.00 0.00 55 1029.0
20260504230013 11 198 0.0 4.8 0.00 0.00 0.00 52 1029.0
20260504224509 11 208 0.0 4.8 0.00 0.00 0.00 49 1028.6
20260504223010 12 210 0.0 11.3 0.00 0.00 0.00 45 1028.3
20260504221508 13 194 1.6 9.7 0.00 0.00 0.00 39 1027.6
20260504220009 14 188 3.2 11.3 0.00 0.00 0.00 37 1027.5
20260504214512 15 202 0.0 0.0 0.00 0.00 0.00 36 1027.3
20260504213006 15 202 0.0 4.8 0.00 0.00 0.00 36 1027.3
20260504211507 15 202 0.0 3.2 0.00 0.00 0.00 36 1027.4
20260504210003 15 202 0.0 4.8 0.00 0.00 0.00 35 1027.7
20260504204501 15 169 1.6 6.4 0.00 0.00 0.00 39 1027.9
20260504203106 14 111 1.6 11.3 0.00 0.00 0.00 40 1028.2
20260504201621 13 213 0.0 12.9 0.00 0.00 0.00 43 1028.7
20260504200057 12 200 1.6 9.7 0.00 0.00 0.00 50 1028.9
20260504194602 13 159 1.6 17.7 0.00 0.00 0.00 44 1029.2
20260504193104 13 188 0.0 4.8 0.00 0.00 0.00 42 1029.0
20260504191601 13 207 0.0 8.0 0.00 0.00 0.00 43 1028.6
20260504190114 13 213 1.6 9.7 0.00 0.00 0.00 41 1029.0
20260504184618 12 167 3.2 11.3 0.00 0.00 0.00 45 1029.2
20260504183054 12 36 1.6 11.3 0.00 0.00 0.00 40 1029.2
20260504181553 14 5 0.0 9.7 0.00 0.00 0.00 32 1028.8
20260504180054 15 176 0.0 6.4 0.00 0.00 0.00 33 1028.4
20260504174553 15 212 0.0 12.9 0.00 0.00 0.00 31 1028.3
20260504173051 17 195 0.0 11.3 0.00 0.00 0.00 29 1028.5
20260504171550 16 163 0.0 8.0 0.00 0.00 0.00 31 1028.8
20260504120119 3 199 0.0 0.0 0.00 0.00 0.00 54 1030.7
20260504110103 2 199 0.0 0.0 0.00 0.00 0.00 55 1031.2
20260504081535 4 199 0.0 0.0 0.00 0.00 0.00 52 1031.9
20260504050003 8 199 0.0 0.0 0.00 0.00 0.00 46 1033.2
20260504044504 8 199 0.0 0.0 0.00 0.00 0.00 44 1033.3
20260504043003 9 199 0.0 0.0 0.00 0.00 0.00 42 1033.5
20260504041503 10 199 0.0 0.0 0.00 0.00 0.00 42 1033.6
20260504040002 11 199 0.0 0.0 0.00 0.00 0.00 36 1033.6
20260504034501 11 199 0.0 1.6 0.00 0.00 0.00 34 1033.7
20260504033116 11 199 0.0 1.6 0.00 0.00 0.00 34 1033.8
20260504031605 11 198 0.0 0.0 0.00 0.00 0.00 34 1033.9
20260504030059 12 198 0.0 0.0 0.00 0.00 0.00 35 1034.0
20260504024602 11 196 0.0 1.6 0.00 0.00 0.00 35 1033.8